Hourly Data Report for June 25, 2021

MANIWAKI AIRPORT
QUEBEC
Current Station Operator: ECCC - MSC

46°16'29.000" N
75°59'31.000" W
199.70 m
7034482
71721
WMJ

Download Data

Hourly Data (June 2021)
Hourly Data Report for June 25, 2021
TIME
LST
Temp Definition
°C
Dew Point Definition
°C
Rel Hum Definition
%
Precip. Amount Definition
mm

Wind Dir Definition
10's deg

Wind Spd Definition
km/h
Visibility Definition
km
Stn Press Definition
kPa
Hmdx Definition


Wind Chill Definition


Weather Definition


00:00 20.5 10.5 52 0.0 18 11   99.61     LegendNANA
01:00 19.9 11.3 58 0.0 17 13   99.55     LegendNANA
02:00 19.1 11.8 62 0.0 17 15   99.52     LegendNANA
03:00 17.6 12.7 73 0.0 20 9   99.55     LegendNANA
04:00 17.0 13.0 77 0.5 17 10   99.54     LegendNANA
05:00 16.6 13.2 81 0.0 18 16   99.58     LegendNANA
06:00 16.1 13.7 86 0.0 19 11   99.64     LegendNANA
07:00 16.2 14.2 88 0.8 17 12   99.62     LegendNANA
08:00 16.4 14.5 88 0.2 17 10   99.64     LegendNANA
09:00 17.3 15.0 86 0.0 17 10   99.63     LegendNANA
10:00 18.2 14.8 81 0.0 18 11   99.66     LegendNANA
11:00 18.2 15.5 85 0.2 19 10   99.69     LegendNANA
12:00 18.2 16.3 88 0.3 17 10   99.60     LegendNANA
13:00 19.0 16.3 84 0.1 18 11   99.52     LegendNANA
14:00 19.8 15.5 76 0.0 17 17   99.50     LegendNANA
15:00 20.4 15.4 73 0.0 18 14   99.43 25   LegendNANA
16:00 20.1 15.1 73 0.0 19 14   99.43     LegendNANA
17:00 21.1 15.9 72 0.0 19 9   99.41 26   LegendNANA
18:00 21.0 16.1 74 0.0 19 13   99.42 26   LegendNANA
19:00 20.1 16.4 80 0.0 18 9   99.42 25   LegendNANA
20:00 19.5 16.4 83 0.0 18 7   99.40     LegendNANA
21:00 18.5 16.9 90 0.2 16 10   99.41     LegendNANA
22:00 18.1 17.2 95 0.1 18 7   99.35     LegendNANA
23:00 18.3 17.3 94 0.0 18 9   99.35     LegendNANA

Notes on Data Quality.

Legend

  • E = Estimated
  • M = Missing
  • NA = Not Available*
  • [empty] = Indicates an unobserved value
Date modified: